Tracking 28790 objects as of 19-Apr-2024
HD Live streaming from Space Station
objects crossing your sky now

ANNA 1B

Track ANNA 1B now!
10-day predictions
ANNA 1B is classified as:


NORAD ID: 446
Int'l Code: 1962-060A
Perigee: 1,081.3 km
Apogee: 1,186.5 km
Inclination: 50.1 °
Period: 107.8 minutes
Semi major axis: 7504 km
RCS: 0.8414 m2 (medium)
Launch date: October 31, 1962
Source: United States (US)
Launch site: AIR FORCE EASTERN TEST RANGE (AFETR)
Your satellite tracking list
Your tracking list is empty




NASA's NSSDC Master Catalog

Two Line Element Set (TLE):
1   446U 62060A   24109.89310161 -.00000085  00000-0  78817-4 0  9992
2   446  50.1422 328.0456 0070127 192.5164 265.5031 13.35317944998663
Source of the keplerian elements: AFSPC